Location: Namasale
(1.5000°N, 32.6167°E)
Time: 19:26:57
(UTC+00:00)

Courier 1B - Pass Details

Date: 21 April 2021
Orbit: 962 x 1209 km, 28.3° (Epoch: 10 May)

Event Time Altitude Azimuth Distance (km) Brightness Sun altitude
Rises 08:56:02 0° 281° (W) 3,842 10.5 73.3°
Reaches altitude 10° 09:00:12 10° 303° (WNW) 2,830 10.0 74.1°
Maximum altitude 09:03:55 15° 337° (NNW) 2,431 9.9 74.8°
Drops below altitude 10° 09:07:33 10° 10° (N) 2,744 10.2 75.4°
Sets 09:11:30 0° 33° (NNE) 3,657 10.7 76.1°
